CEB132 RPVM-RPVE

Flight info

Callsign CEB132
Flight time 0h 30m
Altitude 20000
Route PARAO4P PARAO W6A ROX TR15 KLO KLO7A
Aircraft A21N/M-SDE2E3FGHIRWXY/LB1

Departure

Time 2026-04-22 16:49
Airport Mactan Cebu International Airport (RPVM)

Arrival

Time 2026-04-22 17:20
Airport Godofredo P. Ramos Airport (RPVE)
Time Latitude Longitude Altitude Speed Heading
2026-04-22 16:36 10.31127 123.97748 39 ft 0 kts 45°
2026-04-22 16:42 10.31124 123.97746 39 ft 2 kts 45°
2026-04-22 16:42 10.31112 123.97734 39 ft 2 kts 45°
2026-04-22 16:42 10.31100 123.97722 36 ft 2 kts 89°
2026-04-22 16:43 10.31100 123.97706 35 ft 2 kts 88°
2026-04-22 16:43 10.31100 123.97697 35 ft 0 kts 120°
2026-04-22 16:45 10.31068 123.97714 38 ft 12 kts 159°
2026-04-22 16:45 10.31015 123.97771 38 ft 10 kts 154°
2026-04-22 16:46 10.30949 123.97732 38 ft 15 kts 223°
2026-04-22 16:46 10.30860 123.97646 38 ft 20 kts 225°
2026-04-22 16:46 10.30751 123.97533 39 ft 25 kts 226°
2026-04-22 16:46 10.30621 123.97395 39 ft 29 kts 223°
2026-04-22 16:47 10.30460 123.97244 38 ft 33 kts 223°
2026-04-22 16:47 10.30289 123.97074 37 ft 37 kts 225°
2026-04-22 16:47 10.30105 123.96881 38 ft 39 kts 220°
2026-04-22 16:47 10.29961 123.96741 38 ft 14 kts 229°
2026-04-22 16:48 10.29872 123.96713 38 ft 13 kts 154°
2026-04-22 16:48 10.29804 123.96789 37 ft 18 kts 133°
2026-04-22 16:48 10.29720 123.96891 34 ft 2 kts 107°
2026-04-22 16:48 10.29730 123.96921 33 ft 9 kts 60°
2026-04-22 16:49 10.29759 123.96945 34 ft 0 kts 47°
2026-04-22 16:49 10.29907 123.97096 33 ft 80 kts 43°
2026-04-22 16:49 10.30539 123.97720 39 ft 166 kts 43°
2026-04-22 16:49 10.31429 123.98594 697 ft 186 kts 42°
2026-04-22 16:50 10.32469 123.99557 1345 ft 201 kts 32°
2026-04-22 16:50 10.33788 123.99890 2353 ft 202 kts 357°
2026-04-22 16:50 10.35162 123.99359 2842 ft 227 kts 325°
2026-04-22 16:50 10.36368 123.98226 3225 ft 248 kts 316°
2026-04-22 16:51 10.37592 123.96888 3585 ft 270 kts 315°
2026-04-22 16:51 10.38903 123.95452 4290 ft 278 kts 316°
2026-04-22 16:51 10.40243 123.94037 5353 ft 281 kts 316°
2026-04-22 16:51 10.41640 123.92633 6718 ft 282 kts 317°
2026-04-22 16:52 10.43071 123.91240 7752 ft 292 kts 317°
2026-04-22 16:52 10.44567 123.89775 8605 ft 297 kts 316°
2026-04-22 16:52 10.46127 123.88218 9512 ft 299 kts 315°
2026-04-22 16:52 10.49078 123.85248 11088 ft 304 kts 314°
2026-04-22 16:53 10.52125 123.82136 12752 ft 312 kts 312°
2026-04-22 16:53 10.55219 123.78927 14383 ft 321 kts 312°
2026-04-22 16:53 10.58388 123.75662 15954 ft 330 kts 313°
2026-04-22 16:53 10.61649 123.72323 17611 ft 339 kts 313°
2026-04-22 16:54 10.65005 123.68904 19184 ft 346 kts 313°
2026-04-22 16:54 10.68483 123.65362 19857 ft 357 kts 313°
2026-04-22 16:54 10.72150 123.61611 19890 ft 398 kts 313°
2026-04-22 16:54 10.76101 123.57565 19887 ft 403 kts 313°
2026-04-22 16:55 10.80072 123.53526 19910 ft 403 kts 313°
2026-04-22 16:55 10.84033 123.49494 19889 ft 403 kts 313°
2026-04-22 16:55 10.88059 123.45377 19890 ft 426 kts 313°
2026-04-22 16:55 10.92353 123.40971 19889 ft 442 kts 313°
2026-04-22 16:56 10.96653 123.36596 19895 ft 442 kts 313°
2026-04-22 16:56 11.01318 123.31831 19886 ft 442 kts 313°
2026-04-22 16:56 11.05713 123.27465 19892 ft 442 kts 315°
2026-04-22 16:56 11.10212 123.23183 19894 ft 442 kts 315°
2026-04-22 16:57 11.14712 123.18898 19892 ft 442 kts 315°
2026-04-22 16:57 11.15133 123.18496 19896 ft 442 kts 315°
2026-04-22 16:57 11.16993 123.16712 19893 ft 442 kts 315°
2026-04-22 16:58 11.18481 123.15281 19883 ft 442 kts 315°
2026-04-22 16:58 11.21447 123.12423 19894 ft 442 kts 315°
2026-04-22 16:58 11.23678 123.10273 19887 ft 442 kts 315°
2026-04-22 16:58 11.25918 123.08116 19886 ft 442 kts 315°
2026-04-22 16:59 11.28154 123.05962 19892 ft 442 kts 315°
2026-04-22 16:59 11.30394 123.03804 19886 ft 442 kts 315°
2026-04-22 16:59 11.32620 123.01659 19892 ft 442 kts 315°
2026-04-22 16:59 11.34864 122.99497 19890 ft 442 kts 315°
2026-04-22 17:00 11.37097 122.97345 19896 ft 442 kts 315°
2026-04-22 17:00 11.41567 122.93031 19889 ft 442 kts 315°
2026-04-22 17:00 11.43803 122.90872 19895 ft 442 kts 315°
2026-04-22 17:01 11.46038 122.88712 19893 ft 442 kts 315°
2026-04-22 17:01 11.48270 122.86558 19895 ft 442 kts 315°
2026-04-22 17:01 11.50503 122.84401 19891 ft 442 kts 315°
2026-04-22 17:01 11.52706 122.82273 19894 ft 442 kts 315°
2026-04-22 17:02 11.54948 122.80109 19886 ft 442 kts 315°
2026-04-22 17:02 11.57157 122.77919 19901 ft 441 kts 310°
2026-04-22 17:02 11.58974 122.75407 19889 ft 440 kts 299°
2026-04-22 17:02 11.60262 122.72596 19893 ft 438 kts 288°
2026-04-22 17:03 11.61044 122.69588 19892 ft 437 kts 281°
2026-04-22 17:03 11.61691 122.66555 19895 ft 437 kts 282°
2026-04-22 17:03 11.62364 122.63525 19895 ft 437 kts 282°
2026-04-22 17:03 11.63065 122.60504 19890 ft 437 kts 283°
2026-04-22 17:04 11.63541 122.58503 19889 ft 437 kts 283°
2026-04-22 17:04 11.64278 122.55438 19899 ft 453 kts 284°
2026-04-22 17:04 11.65287 122.51228 19893 ft 460 kts 283°
2026-04-22 17:04 11.65791 122.49116 19895 ft 460 kts 283°
2026-04-22 17:05 11.66545 122.45936 19892 ft 461 kts 283°
2026-04-22 17:05 11.67292 122.42760 19897 ft 461 kts 283°
2026-04-22 17:05 11.68214 122.39651 19829 ft 462 kts 292°
2026-04-22 17:05 11.69729 122.36756 19433 ft 457 kts 303°
2026-04-22 17:06 11.71627 122.34281 18902 ft 437 kts 309°
2026-04-22 17:06 11.73562 122.31939 18371 ft 426 kts 308°
2026-04-22 17:06 11.75455 122.29578 17787 ft 427 kts 307°
2026-04-22 17:06 11.77276 122.27247 17187 ft 421 kts 307°
2026-04-22 17:07 11.79081 122.24907 16587 ft 417 kts 307°
2026-04-22 17:07 11.80870 122.22580 16013 ft 410 kts 307°
2026-04-22 17:07 11.82587 122.20349 15444 ft 389 kts 307°
2026-04-22 17:07 11.84228 122.18226 14886 ft 371 kts 307°
2026-04-22 17:08 11.85820 122.16170 14320 ft 365 kts 307°
2026-04-22 17:08 11.87377 122.14163 13808 ft 364 kts 307°
2026-04-22 17:08 11.88949 122.12146 13206 ft 360 kts 307°
2026-04-22 17:08 11.90509 122.10142 12600 ft 357 kts 307°
2026-04-22 17:09 11.92036 122.08178 12017 ft 355 kts 307°
2026-04-22 17:09 11.93589 122.06186 11429 ft 352 kts 307°
2026-04-22 17:09 11.95098 122.04254 10867 ft 344 kts 307°
2026-04-22 17:09 11.96556 122.02391 10313 ft 331 kts 308°
2026-04-22 17:10 11.97958 122.00600 9769 ft 321 kts 308°
2026-04-22 17:10 11.99331 121.98848 9162 ft 311 kts 308°
2026-04-22 17:10 12.00664 121.97143 8560 ft 303 kts 308°
2026-04-22 17:10 12.01982 121.95455 7980 ft 301 kts 309°
2026-04-22 17:11 12.03100 121.93682 7405 ft 299 kts 290°
2026-04-22 17:11 12.03375 121.91624 6844 ft 295 kts 262°
2026-04-22 17:11 12.02713 121.89690 6287 ft 288 kts 235°
2026-04-22 17:11 12.01536 121.88037 5691 ft 284 kts 231°
2026-04-22 17:12 12.00351 121.86442 5111 ft 282 kts 232°
2026-04-22 17:12 11.99206 121.84836 4529 ft 279 kts 233°
2026-04-22 17:12 11.98094 121.83222 3978 ft 280 kts 234°
2026-04-22 17:12 11.96997 121.81599 3741 ft 271 kts 235°
2026-04-22 17:13 11.95959 121.80052 3682 ft 256 kts 235°
2026-04-22 17:13 11.94962 121.78567 3689 ft 257 kts 235°
2026-04-22 17:13 11.93956 121.77073 3683 ft 254 kts 234°
2026-04-22 17:13 11.92947 121.75591 3683 ft 252 kts 234°
2026-04-22 17:14 11.91898 121.74246 3678 ft 232 kts 216°
2026-04-22 17:14 11.90481 121.73575 3697 ft 223 kts 184°
2026-04-22 17:14 11.89024 121.73778 3683 ft 211 kts 150°
2026-04-22 17:14 11.87753 121.74506 3682 ft 209 kts 146°
2026-04-22 17:15 11.86911 121.75017 3650 ft 209 kts 146°
2026-04-22 17:15 11.85217 121.75994 3344 ft 209 kts 147°
2026-04-22 17:15 11.84199 121.76951 3102 ft 196 kts 115°
2026-04-22 17:15 11.83937 121.78231 2865 ft 174 kts 83°
2026-04-22 17:16 11.84334 121.79371 2630 ft 174 kts 61°
2026-04-22 17:16 11.84949 121.80416 2391 ft 172 kts 63°
2026-04-22 17:16 11.85531 121.81488 2140 ft 173 kts 64°
2026-04-22 17:16 11.86083 121.82571 1900 ft 170 kts 66°
2026-04-22 17:17 11.86619 121.83659 1656 ft 173 kts 66°
2026-04-22 17:17 11.87146 121.84748 1414 ft 162 kts 66°
2026-04-22 17:17 11.87639 121.85775 1190 ft 164 kts 65°
2026-04-22 17:17 11.88181 121.86806 989 ft 162 kts 62°
2026-04-22 17:18 11.88773 121.87795 968 ft 163 kts 59°
2026-04-22 17:18 11.89343 121.88787 871 ft 160 kts 63°
2026-04-22 17:18 11.89857 121.89810 739 ft 166 kts 65°
2026-04-22 17:18 11.90374 121.90868 649 ft 167 kts 64°
2026-04-22 17:19 11.91374 121.92931 418 ft 151 kts 68°
2026-04-22 17:19 11.92171 121.94840 71 ft 133 kts 63°
2026-04-22 17:20 11.92765 121.96022 27 ft 19 kts 63°
2026-04-22 17:20 11.92789 121.96123 26 ft 9 kts 119°
2026-04-22 17:21 11.92746 121.96150 26 ft 7 kts 157°
2026-04-22 17:21 11.92653 121.96213 26 ft 4 kts 109°
2026-04-22 17:22 11.92682 121.96292 26 ft 4 kts 65°
2026-04-22 17:22 11.92684 121.96323 27 ft 3 kts 114°
2026-04-22 17:22 11.92664 121.96334 26 ft 3 kts 149°
2026-04-22 17:23 11.92656 121.96338 26 ft 0 kts 153°